Weather in Ust-Ilych

Russia / Komi Republic     62°30′58″N   56°44′34″E
temp.,
°C
wind,
m/s
gust,
m/s
humid.,
%
clouds,
%
prec.,
mm/h
press.,
hPa
HPBL,
m
29 july, thu
thu2900:00+7w1498100 0.3 1006241
03:00+7nnw1299100 0.8 1005135
06:00+8nnw129349 0.1 1005227
09:00+11nne237799 0.6 1006937
12:00+14nnw2349100 0.2 10051844
15:00+14wnw225098 0.3 10061360
18:00+14nw115715 0.0 1005104
21:00+8e1175100 0.0 100510
30 july, fri
fri3000:00+7sse1280100 0.0 100414
03:00+6ese11855 0.0 100411
06:00+11e2363100 0.0 1003299
09:00+16e2244100 0.0 10011015
12:00+20nne123897 0.0 10001597
15:00+20n2236100 0.0 10011966
18:00+17nne1151100 0.0 100111
21:00+12ne28689 0.0 1003165
31 july, sat
sat3100:00+9e227765 0.0 100436
03:00+10ese2369100 0.0 100568
06:00+13se2462100 0.0 1005199
09:00+19sse354973 0.0 1004847
12:00+22sse4647100 0.0 10021848
15:00+22sse3754100 0.0 10011300
18:00+16s31295100 1.1 1000544
21:00+16sse41297100 9.1 998657
1 august, sun
sun100:00+16s51297100 1.6 996732
03:00+17ssw4997100 2.0 996668
06:00+15sw41097100 0.9 997745
09:00+15wsw3796100 3.7 998531
12:00+14w3798100 7.0 1001408
15:00+18w378897 8.3 1002824
18:00+17w389152 1.6 1003327
21:00+14sw28965 2.1 1004155
2 august, mon
mon200:00+13wsw299813 0.0 1004181
03:00+13sw3797100 0.0 1005173
06:00+14wsw1595100 0.0 1006154
09:00+16sw239199 0.2 1006217
12:00+21wsw247187 1.3 1006732
15:00+24wsw244676 1.3 10061760
18:00+20nnw117542 0.2 100627
21:00+16ssw2290100 0.9 100642